TimeCDT,TemperatureF,Dew PointF,Humidity,Sea Level PressureIn,VisibilityMPH,Wind Direction,Wind SpeedMPH,Gust SpeedMPH,PrecipitationIn,Events,Conditions,WindDirDegrees,DateUTC
12:06 AM,46.6,39.4,76,29.88,10.0,West,5.8,-,N/A,,Clear,260,2012-09-20 05:06:00
12:29 AM,49.1,41.0,74,29.88,10.0,West,5.8,-,N/A,,Clear,260,2012-09-20 05:29:00
12:49 AM,49.1,40.3,72,29.87,10.0,West,6.9,-,N/A,,Clear,260,2012-09-20 05:49:00
1:07 AM,49.1,39.6,70,29.86,10.0,West,6.9,-,N/A,,Clear,270,2012-09-20 06:07:00
1:29 AM,49.1,39.9,71,29.88,10.0,WNW,5.8,-,N/A,,Clear,290,2012-09-20 06:29:00
1:49 AM,48.0,39.6,73,29.89,10.0,West,4.6,-,N/A,,Clear,280,2012-09-20 06:49:00
2:09 AM,47.3,38.7,72,29.89,10.0,WNW,5.8,-,N/A,,Clear,290,2012-09-20 07:09:00
2:28 AM,49.1,40.1,71,29.89,10.0,WNW,4.6,-,N/A,,Clear,290,2012-09-20 07:28:00
2:38 AM,47.3,38.5,71,29.89,10.0,WNW,3.5,-,N/A,,Clear,290,2012-09-20 07:38:00
3:00 AM,42.8,37.4,81,29.88,10.0,WSW,4.6,-,N/A,,Clear,250,2012-09-20 08:00:00
3:30 AM,41.0,37.4,87,29.89,10.0,West,5.8,-,N/A,,Clear,270,2012-09-20 08:30:00
3:50 AM,44.6,39.2,81,29.89,10.0,West,5.8,-,N/A,,Clear,270,2012-09-20 08:50:00
4:10 AM,46.4,39.2,76,29.89,10.0,West,5.8,-,N/A,,Clear,270,2012-09-20 09:10:00
4:30 AM,44.6,37.4,76,29.90,10.0,West,8.1,-,N/A,,Clear,270,2012-09-20 09:30:00
5:10 AM,46.4,39.2,76,29.90,10.0,West,8.1,-,N/A,,Clear,280,2012-09-20 10:10:00
5:30 AM,48.2,41.0,76,29.90,10.0,West,5.8,-,N/A,,Clear,270,2012-09-20 10:30:00
5:50 AM,46.4,39.2,76,29.91,10.0,West,5.8,-,N/A,,Clear,270,2012-09-20 10:50:00
6:10 AM,46.4,39.2,76,29.91,10.0,West,6.9,-,N/A,,Clear,280,2012-09-20 11:10:00
6:30 AM,46.4,39.2,76,29.92,10.0,West,6.9,-,N/A,,Clear,280,2012-09-20 11:30:00
6:50 AM,48.2,41.0,76,29.92,10.0,West,6.9,-,N/A,,Clear,270,2012-09-20 11:50:00
7:10 AM,48.2,41.0,76,29.93,10.0,West,8.1,-,N/A,,Clear,270,2012-09-20 12:10:00
7:30 AM,48.2,41.0,76,29.94,10.0,West,8.1,-,N/A,,Clear,280,2012-09-20 12:30:00
7:50 AM,48.2,41.0,76,29.95,10.0,West,8.1,-,N/A,,Clear,270,2012-09-20 12:50:00
8:10 AM,48.2,39.2,71,29.95,10.0,West,5.8,-,N/A,,Clear,270,2012-09-20 13:10:00
8:23 AM,49.1,39.2,69,29.95,10.0,West,8.1,-,N/A,,Clear,270,2012-09-20 13:23:00
8:29 AM,49.1,38.8,68,29.95,10.0,West,9.2,-,N/A,,Clear,270,2012-09-20 13:29:00
8:49 AM,51.8,40.1,64,29.95,10.0,West,10.4,16.1,N/A,,Clear,270,2012-09-20 13:49:00
9:09 AM,54.1,41.9,63,29.95,10.0,West,10.4,16.1,N/A,,Clear,280,2012-09-20 14:09:00
9:29 AM,54.1,40.3,59,29.95,10.0,West,11.5,-,N/A,,Clear,280,2012-09-20 14:29:00
9:49 AM,55.2,40.1,57,29.95,10.0,West,12.7,16.1,N/A,,Scattered Clouds,280,2012-09-20 14:49:00
10:08 AM,56.7,40.8,55,29.94,10.0,WNW,13.8,17.3,N/A,,Scattered Clouds,290,2012-09-20 15:08:00
10:49 AM,59.2,38.8,47,29.95,10.0,WNW,15.0,20.7,N/A,,Clear,290,2012-09-20 15:49:00
11:09 AM,59.4,37.6,44,-9999,10.0,WNW,15.0,19.6,N/A,,Clear,300,2012-09-20 16:09:00
11:28 AM,60.8,37.9,43,-9999,10.0,WNW,11.5,18.4,N/A,,Clear,300,2012-09-20 16:28:00
11:49 AM,61.7,38.3,42,29.95,10.0,NW,17.3,20.7,N/A,,Clear,320,2012-09-20 16:49:00
12:08 PM,60.8,36.9,41,29.95,10.0,NW,12.7,24.2,N/A,,Scattered Clouds,310,2012-09-20 17:08:00
12:29 PM,61.3,36.9,40,29.95,10.0,NW,15.0,26.5,N/A,,Mostly Cloudy,310,2012-09-20 17:29:00
12:49 PM,60.4,36.5,41,29.95,10.0,WNW,15.0,21.9,N/A,,Mostly Cloudy,300,2012-09-20 17:49:00
1:09 PM,61.0,35.8,39,29.94,10.0,WNW,13.8,21.9,N/A,,Scattered Clouds,300,2012-09-20 18:09:00
1:29 PM,61.9,36.0,38,29.94,10.0,NW,17.3,31.1,N/A,,Scattered Clouds,310,2012-09-20 18:29:00
1:49 PM,63.0,36.3,37,29.93,10.0,WNW,12.7,25.3,N/A,,Scattered Clouds,300,2012-09-20 18:49:00
2:09 PM,65.3,36.7,35,29.92,10.0,WNW,17.3,23.0,N/A,,Scattered Clouds,300,2012-09-20 19:09:00
2:28 PM,66.7,36.9,33,29.92,10.0,West,12.7,19.6,N/A,,Clear,280,2012-09-20 19:28:00
2:48 PM,65.7,36.7,34,29.91,10.0,WNW,16.1,25.3,N/A,,Clear,290,2012-09-20 19:48:00
3:09 PM,66.7,36.9,33,29.92,10.0,WNW,10.4,23.0,N/A,,Clear,290,2012-09-20 20:09:00
3:28 PM,66.2,36.3,33,29.91,10.0,NW,12.7,23.0,N/A,,Clear,310,2012-09-20 20:28:00
3:49 PM,68.4,37.0,32,29.91,10.0,WNW,12.7,21.9,N/A,,Scattered Clouds,300,2012-09-20 20:49:00
4:09 PM,66.7,35.6,32,29.90,10.0,WNW,13.8,24.2,N/A,,Clear,300,2012-09-20 21:09:00
4:29 PM,64.4,34.5,33,29.90,10.0,WNW,11.5,-,N/A,,Clear,300,2012-09-20 21:29:00
4:49 PM,64.4,34.5,33,29.90,10.0,WNW,10.4,-,N/A,,Clear,290,2012-09-20 21:49:00
5:09 PM,63.0,34.7,35,29.90,10.0,WNW,10.4,-,N/A,,Clear,290,2012-09-20 22:09:00
5:29 PM,62.4,34.9,36,29.90,10.0,WNW,6.9,-,N/A,,Clear,290,2012-09-20 22:29:00
5:49 PM,62.8,35.4,36,29.90,10.0,WNW,8.1,-,N/A,,Clear,290,2012-09-20 22:49:00
6:08 PM,63.0,35.8,36,29.90,10.0,West,6.9,-,N/A,,Clear,280,2012-09-20 23:08:00
6:29 PM,62.4,35.2,36,29.90,10.0,West,5.8,-,N/A,,Clear,270,2012-09-20 23:29:00
6:49 PM,60.6,35.1,38,29.89,10.0,West,4.6,-,N/A,,Clear,280,2012-09-20 23:49:00
7:09 PM,59.2,36.3,43,29.89,10.0,West,3.5,-,N/A,,Clear,270,2012-09-21 00:09:00
7:29 PM,56.7,38.1,50,29.89,10.0,Calm,Calm,-,N/A,,Clear,0,2012-09-21 00:29:00
7:49 PM,54.1,39.7,58,29.89,10.0,Calm,Calm,-,N/A,,Clear,0,2012-09-21 00:49:00
8:09 PM,54.1,39.7,58,29.90,10.0,SW,3.5,-,N/A,,Clear,220,2012-09-21 01:09:00
8:29 PM,49.1,40.5,72,29.89,10.0,Calm,Calm,-,N/A,,Clear,0,2012-09-21 01:29:00
8:49 PM,51.8,40.6,66,29.89,10.0,SSW,3.5,-,N/A,,Scattered Clouds,210,2012-09-21 01:49:00
9:09 PM,52.9,41.5,65,29.89,10.0,SSW,3.5,-,N/A,,Mostly Cloudy,210,2012-09-21 02:09:00
9:28 PM,54.5,38.7,55,29.89,10.0,SW,5.8,-,N/A,,Overcast,230,2012-09-21 02:28:00
9:49 PM,56.3,39.2,53,29.88,10.0,SW,4.6,-,N/A,,Mostly Cloudy,230,2012-09-21 02:49:00
10:09 PM,56.7,38.5,51,29.88,10.0,WSW,8.1,-,N/A,,Overcast,250,2012-09-21 03:09:00
10:29 PM,59.2,36.9,43,29.88,10.0,WNW,10.4,16.1,N/A,,Overcast,290,2012-09-21 03:29:00
10:49 PM,59.9,36.7,42,29.87,10.0,WNW,9.2,-,N/A,,Overcast,290,2012-09-21 03:49:00
11:09 PM,59.2,37.2,44,29.88,10.0,West,5.8,-,N/A,,Overcast,270,2012-09-21 04:09:00
11:29 PM,59.2,36.7,43,29.87,10.0,West,10.4,-,N/A,,Mostly Cloudy,280,2012-09-21 04:29:00
11:48 PM,58.1,37.9,47,29.87,10.0,West,5.8,-,N/A,,Mostly Cloudy,270,2012-09-21 04:48:00